Cozumel Airport, Mexico

2:10 PM EST on September 25, 2016 (GMT -0500)
Cozumel International

Weather History for MMCZ - December, 2014

Change the Weather History Date:

Thursday, December 25, 2014

  Actual Average Record
Temperature  
Mean Temperature 72 °F -  
Max Temperature 75 °F 80 °F 86 °F (1997)
Min Temperature 68 °F 69 °F 55 °F (2010)
Cooling Degree Days 6    
Growing Degree Days 22 (Base 50)    
Moisture  
Dew Point 69 °F    
Average Humidity 90    
Maximum Humidity 100    
Minimum Humidity 78    
Precipitation  
Precipitation 0.00 in - - ()
Sea Level Pressure  
Sea Level Pressure 30.08 in    
Wind  
Wind Speed 11 mph ()    
Max Wind Speed 15 mph    
Max Gust Speed -    
Visibility 7.4 miles    
Events      
Averages and records for this station are not official NWS values.
T = Trace of Precipitation, MM = Missing Value Source: Averaged Metar Reports

Daily Weather History Graph

Daily Weather History Graph

Search for Another Location

Airport or City:

Trip Planner

Search our weather history database for the weather conditions in past years. The results will help you decide how hot, cold, wet, or windy it might be!

Date:

Astronomy

Dec. 25, 2014 Rise Set
Actual Time 6:21 AM CST 5:14 PM CST
Civil Twilight 5:56 AM CST 5:38 PM CST
Nautical Twilight 5:29 AM CST 6:06 PM CST
Astronomical Twilight 5:02 AM CST 6:33 PM CST
Moon 9:20 AM CST 9:17 PM CST
Length of Visible Light 11h 41m
Length of Day
10h 53m
Waxing Crescent, 18% of the Moon is Illuminated
Dec 25
Waxing Crescent
Dec 28
First Quarter
Jan 4
Full
Jan 13
Last Quarter
Jan 20
New

Hourly Weather History & Observations

Time (CST) Temp. Dew Point Humidity Pressure Visibility Wind Dir Wind Speed Gust Speed Precip Events Conditions
12:42 AM 69.8 °F 68.0 °F 94% 30.04 in 7.0 mi North 15.0 mph - N/A   Mostly Cloudy
1:42 AM 69.8 °F 68.0 °F 94% 30.04 in 7.0 mi North 11.5 mph - N/A   Mostly Cloudy
2:43 AM 69.8 °F 68.0 °F 94% 30.06 in 7.0 mi North 13.8 mph - N/A   Mostly Cloudy
4:30 AM 68.0 °F 66.2 °F 94% 30.06 in 7.0 mi North 13.8 mph - N/A   Scattered Clouds
5:06 AM 68.0 °F 66.2 °F 94% 30.07 in 7.0 mi North 12.7 mph - N/A   Scattered Clouds
5:43 AM 68.0 °F 66.2 °F 94% 30.07 in 7.0 mi North 13.8 mph - N/A   Scattered Clouds
6:45 AM 68.0 °F 66.2 °F 94% 30.11 in 7.0 mi North 15.0 mph - N/A   Scattered Clouds
7:52 AM 69.8 °F 66.2 °F 88% 30.13 in 8.0 mi North 11.5 mph - N/A   Scattered Clouds
8:04 AM 69.8 °F 66.2 °F 88% 30.13 in 7.0 mi North 11.5 mph - N/A   Scattered Clouds
8:49 AM 69.8 °F 66.2 °F 88% 30.17 in 8.0 mi North 13.8 mph - N/A   Scattered Clouds
9:43 AM 73.4 °F 66.2 °F 78% 30.14 in 8.0 mi NNE 13.8 mph - N/A   Partly Cloudy
10:47 AM 75.2 °F 68.0 °F 78% 30.11 in 8.0 mi NE 13.8 mph - N/A   Scattered Clouds
11:47 AM 75.2 °F 69.8 °F 83% 30.08 in 8.0 mi NNE 13.8 mph - N/A   Mostly Cloudy
12:43 PM 75.2 °F 69.8 °F 83% 30.08 in 8.0 mi North 8.1 mph - N/A   Overcast
1:52 PM 73.4 °F 68.0 °F 83% 30.07 in 8.0 mi North 8.1 mph - N/A   Overcast
2:43 PM 73.4 °F 69.8 °F 88% 30.09 in 8.0 mi North 9.2 mph - N/A   Overcast
3:48 PM 73.4 °F 69.8 °F 88% 30.05 in 8.0 mi North 13.8 mph - N/A   Mostly Cloudy
4:51 PM 71.6 °F 69.8 °F 94% 30.05 in 8.0 mi North 10.4 mph - N/A   Scattered Clouds
5:41 PM 71.6 °F 69.8 °F 94% 30.04 in 7.0 mi North 9.2 mph - N/A   Scattered Clouds
6:47 PM 71.6 °F 69.8 °F 94% 30.07 in 7.0 mi North 9.2 mph - N/A   Scattered Clouds
7:46 PM 71.6 °F 71.6 °F 100% 30.07 in 7.0 mi NNE 4.6 mph - N/A   Scattered Clouds
8:49 PM 73.4 °F 71.6 °F 94% 30.09 in 7.0 mi ENE 11.5 mph - N/A   Scattered Clouds
9:45 PM 73.4 °F 71.6 °F 94% 30.07 in 7.0 mi East 10.4 mph - N/A   Scattered Clouds
10:50 PM 73.4 °F 71.6 °F 94% 30.06 in 7.0 mi East 9.2 mph - N/A   Partly Cloudy
11:45 PM 73.4 °F 71.6 °F 94% 30.02 in 7.0 mi East 8.1 mph - N/A   Partly Cloudy